�������l�o���
Date,Time,MP-1(��Sv/h),MP-2(��Sv/h),MP-3(��Sv/h),MP-4(��Sv/h),MP-5(��Sv/h),MP-6(��Sv/h),MP-7(��Sv/h),MP-8(��Sv/h),����,����(m/s),���J
2017/12/21,00:00,0.898,1.500,0.938,1.777,1.200,0.493,0.880,0.845,�k�k��,7.5,��
2017/12/21,00:10,0.899,1.502,0.937,1.773,1.201,0.495,0.880,0.844,�k�k��,8.3,��
2017/12/21,00:20,0.898,1.503,0.939,1.777,1.202,0.492,0.880,0.844,�k�k��,8.3,��
2017/12/21,00:30,0.899,1.500,0.936,1.773,1.201,0.493,0.880,0.844,�k�k��,9.0,��
2017/12/21,00:40,0.898,1.501,0.938,1.776,1.201,0.493,0.880,0.846,�k�k��,9.2,��
2017/12/21,00:50,0.896,1.501,0.938,1.774,1.202,0.493,0.881,0.846,�k�k��,9.4,��
2017/12/21,01:00,0.900,1.502,0.936,1.775,1.202,0.493,0.880,0.844,�k�k��,9.7,��
2017/12/21,01:10,0.898,1.500,0.937,1.775,1.199,0.493,0.881,0.845,�k�k��,9.1,��
2017/12/21,01:20,0.897,1.500,0.938,1.777,1.202,0.492,0.879,0.845,�k�k��,8.7,��
2017/12/21,01:30,0.898,1.501,0.938,1.775,1.201,0.492,0.881,0.844,�k�k��,8.3,��
2017/12/21,01:40,0.898,1.500,0.938,1.773,1.198,0.492,0.881,0.844,�k�k��,9.1,��
2017/12/21,01:50,0.898,1.502,0.937,1.775,1.200,0.492,0.880,0.845,�k�k��,8.6,��
2017/12/21,02:00,0.896,1.497,0.936,1.775,1.199,0.493,0.881,0.844,�k�k��,9.1,��
2017/12/21,02:10,0.896,1.500,0.936,1.773,1.200,0.493,0.880,0.845,�k�k��,8.0,��
2017/12/21,02:20,0.897,1.501,0.936,1.773,1.201,0.491,0.879,0.843,�k�k��,8.4,��
2017/12/21,02:30,0.897,1.502,0.937,1.774,1.199,0.492,0.881,0.843,�k�k��,8.2,��
2017/12/21,02:40,0.897,1.499,0.936,1.770,1.200,0.492,0.879,0.844,�k�k��,7.4,��
2017/12/21,02:50,0.899,1.500,0.937,1.773,1.200,0.493,0.880,0.846,�k�k��,8.0,��
2017/12/21,03:00,0.896,1.500,0.938,1.771,1.199,0.493,0.881,0.842,�k�k��,8.4,��
2017/12/21,03:10,0.896,1.497,0.938,1.774,1.198,0.492,0.880,0.845,�k�k��,8.3,��
2017/12/21,03:20,0.896,1.499,0.938,1.773,1.199,0.492,0.879,0.845,�k�k��,7.6,��
2017/12/21,03:30,0.895,1.498,0.939,1.773,1.195,0.494,0.878,0.845,�k�k��,7.7,��
2017/12/21,03:40,0.898,1.497,0.937,1.770,1.200,0.492,0.881,0.845,�k�k��,7.4,��
2017/12/21,03:50,0.897,1.501,0.937,1.773,1.198,0.494,0.880,0.844,�k�k��,8.0,��
2017/12/21,04:00,0.895,1.499,0.939,1.773,1.199,0.492,0.880,0.844,�k�k��,7.8,��
2017/12/21,04:10,0.895,1.501,0.935,1.772,1.200,0.493,0.881,0.846,�k�k��,6.8,��
2017/12/21,04:20,0.895,1.500,0.937,1.775,1.199,0.492,0.880,0.844,�k�k��,8.1,��
2017/12/21,04:30,0.897,1.500,0.937,1.772,1.198,0.493,0.880,0.846,�k�k��,7.6,��
2017/12/21,04:40,0.898,1.497,0.936,1.771,1.198,0.493,0.880,0.844,�k�k��,6.7,��
2017/12/21,04:50,0.897,1.502,0.938,1.773,1.198,0.493,0.881,0.843,�k�k��,8.0,��
2017/12/21,05:00,0.896,1.500,0.937,1.773,1.195,0.494,0.880,0.843,�k�k��,7.8,��
2017/12/21,05:10,0.895,1.497,0.938,1.772,1.198,0.491,0.880,0.843,�k�k��,7.7,��
2017/12/21,05:20,0.898,1.498,0.937,1.772,1.196,0.492,0.880,0.845,�k�k��,7.8,��
2017/12/21,05:30,0.896,1.497,0.936,1.773,1.200,0.493,0.880,0.845,�k�k��,8.4,��
2017/12/21,05:40,0.896,1.499,0.938,1.771,1.198,0.493,0.881,0.845,�k�k��,7.4,��
2017/12/21,05:50,0.897,1.500,0.936,1.774,1.197,0.492,0.881,0.843,�k�k��,7.6,��
2017/12/21,06:00,0.894,1.500,0.936,1.772,1.196,0.492,0.880,0.843,�k�k��,7.1,��
2017/12/21,06:10,0.894,1.497,0.937,1.777,1.197,0.491,0.878,0.845,�k�k��,6.3,��
2017/12/21,06:20,0.897,1.498,0.935,1.772,1.197,0.492,0.880,0.845,�k�k��,7.1,��
2017/12/21,06:30,0.896,1.499,0.937,1.772,1.198,0.493,0.878,0.843,�k�k��,7.0,��
2017/12/21,06:40,0.896,1.497,0.936,1.773,1.196,0.491,0.878,0.844,�k�k��,7.2,��
2017/12/21,06:50,0.896,1.500,0.937,1.771,1.198,0.492,0.879,0.843,�k�k��,7.0,��
2017/12/21,07:00,0.896,1.497,0.935,1.772,1.196,0.492,0.879,0.843,�k�k��,7.7,��
2017/12/21,07:10,0.897,1.498,0.937,1.773,1.195,0.491,0.880,0.844,�k�k��,6.6,��
2017/12/21,07:20,0.895,1.496,0.937,1.771,1.196,0.491,0.879,0.843,�k�k��,6.9,��
2017/12/21,07:30,0.896,1.498,0.936,1.772,1.197,0.491,0.880,0.844,�k��,6.6,��
2017/12/21,07:40,0.897,1.497,0.937,1.772,1.196,0.492,0.878,0.845,�k�k��,6.5,��
2017/12/21,07:50,0.895,1.497,0.934,1.775,1.197,0.491,0.880,0.843,�k�k��,5.9,��
2017/12/21,08:00,0.896,1.499,0.935,1.774,1.197,0.493,0.879,0.844,�k��,5.6,��
2017/12/21,08:10,0.897,1.498,0.936,1.772,1.195,0.492,0.878,0.845,�k��,5.2,��
2017/12/21,08:20,0.897,1.498,0.937,1.773,1.198,0.491,0.879,0.844,�k��,6.0,��
2017/12/21,08:30,0.896,1.498,0.936,1.773,1.198,0.491,0.879,0.845,�k��,4.9,��
2017/12/21,08:40,0.897,1.496,0.935,1.775,1.198,0.493,0.880,0.846,�k�k��,5.4,��
2017/12/21,08:50,0.895,1.498,0.934,1.773,1.199,0.492,0.878,0.845,�k�k��,4.7,��
2017/12/21,09:00,0.898,1.494,0.931,1.774,1.198,0.493,0.880,0.843,�k��,4.2,��
2017/12/21,09:10,0.899,1.496,0.932,1.776,1.199,0.493,0.880,0.844,�k�k��,4.0,��
2017/12/21,09:20,0.899,1.495,0.935,1.771,1.199,0.493,0.881,0.844,�k�k��,3.4,��
2017/12/21,09:30,0.897,1.494,0.937,1.774,1.202,0.492,0.883,0.845,�k�k��,3.1,��
2017/12/21,09:40,0.900,1.494,0.937,1.777,1.199,0.492,0.882,0.842,�k�k��,3.3,��
2017/12/21,09:50,0.899,1.492,0.935,1.774,1.199,0.493,0.882,0.839,�k�k��,3.3,��
2017/12/21,10:00,0.901,1.491,0.936,1.773,1.197,0.493,0.882,0.841,�k,3.5,��
2017/12/21,10:10,0.900,1.493,0.936,1.775,1.197,0.493,0.880,0.840,�k�k��,3.6,��
2017/12/21,10:20,0.897,1.497,0.935,1.776,1.200,0.492,0.879,0.843,�k�k��,3.6,��
2017/12/21,10:30,0.898,1.489,0.939,1.774,1.200,0.492,0.881,0.843,�k��,3.4,��
2017/12/21,10:40,0.900,1.494,0.937,1.776,1.197,0.492,0.880,0.841,�k�k��,3.8,��
2017/12/21,10:50,0.900,1.498,0.937,1.773,1.202,0.492,0.881,0.841,�k�k��,4.1,��
2017/12/21,11:00,0.898,1.497,0.937,1.775,1.204,0.495,0.878,0.843,�k�k��,3.9,��
2017/12/21,11:10,0.900,1.492,0.937,1.778,1.203,0.492,0.879,0.843,�k�k��,3.7,��
2017/12/21,11:20,0.899,1.495,0.941,1.776,1.202,0.484,0.880,0.845,�k��,3.8,��
2017/12/21,11:30,0.898,1.500,0.938,1.774,1.204,0.490,0.880,0.842,�k�k��,3.5,��
2017/12/21,11:40,0.898,1.494,0.937,1.778,1.202,0.494,0.880,0.844,�k�k��,3.2,��
2017/12/21,11:50,0.901,1.498,0.938,1.778,1.202,0.495,0.881,0.846,�k�k��,3.4,��
2017/12/21,12:00,0.900,1.498,0.938,1.773,1.203,0.494,0.883,0.846,�k��,3.8,��
2017/12/21,12:10,0.902,1.496,0.938,1.774,1.201,0.492,0.882,0.847,�k��,4.0,��
2017/12/21,12:20,0.901,1.501,0.940,1.771,1.202,0.493,0.883,0.848,�k��,4.2,��
2017/12/21,12:30,0.900,1.502,0.939,1.775,1.203,0.492,0.882,0.846,�k��,4.0,��
2017/12/21,12:40,0.901,1.500,0.938,1.776,1.203,0.494,0.882,0.850,�k�k��,4.3,��
2017/12/21,12:50,0.902,1.500,0.938,1.779,1.202,0.494,0.881,0.847,�k�k��,4.8,��
2017/12/21,13:00,0.903,1.500,0.938,1.777,1.200,0.492,0.884,0.847,�k�k��,5.5,��
2017/12/21,13:10,0.901,1.498,0.937,1.777,1.203,0.493,0.880,0.847,�k�k��,4.6,��
2017/12/21,13:20,0.901,1.500,0.942,1.776,1.204,0.494,0.883,0.846,�k�k��,5.1,��
2017/12/21,13:30,0.902,1.498,0.941,1.777,1.205,0.493,0.883,0.848,�k�k��,5.0,��
2017/12/21,13:40,0.900,1.501,0.940,1.774,1.204,0.494,0.882,0.846,�k�k��,4.2,��
2017/12/21,13:50,0.903,1.498,0.939,1.778,1.204,0.492,0.882,0.842,�k�k��,4.5,��
2017/12/21,14:00,0.901,1.495,0.937,1.777,1.202,0.493,0.881,0.848,�k�k��,5.1,��
2017/12/21,14:10,0.902,1.497,0.937,1.775,1.202,0.493,0.884,0.847,�k�k��,4.8,��
2017/12/21,14:20,0.904,1.500,0.938,1.775,1.203,0.494,0.883,0.848,�k�k��,4.4,��
2017/12/21,14:30,0.900,1.499,0.935,1.774,1.202,0.494,0.883,0.847,�k�k��,4.1,��
2017/12/21,14:40,0.904,1.504,0.940,1.778,1.205,0.493,0.882,0.846,�k�k��,3.9,��
2017/12/21,14:50,0.902,1.500,0.940,1.776,1.204,0.494,0.882,0.848,�k�k��,3.3,��
2017/12/21,15:00,0.903,1.503,0.940,1.776,1.205,0.493,0.884,0.847,�k�k��,3.6,��
2017/12/21,15:10,0.901,1.503,0.942,1.777,1.203,0.495,0.881,0.847,�k,3.2,��
2017/12/21,15:20,0.900,1.503,0.940,1.775,1.203,0.493,0.883,0.847,�k,2.6,��
2017/12/21,15:30,0.902,1.505,0.941,1.777,1.202,0.493,0.883,0.847,�k�k��,2.2,��
2017/12/21,15:40,0.901,1.508,0.939,1.775,1.205,0.494,0.883,0.848,�k�k��,2.3,��
2017/12/21,15:50,0.902,1.504,0.941,1.775,1.203,0.494,0.883,0.848,�k,2.3,��
2017/12/21,16:00,0.901,1.505,0.941,1.776,1.205,0.494,0.882,0.848,�k�k��,2.3,��
2017/12/21,16:10,0.901,1.504,0.939,1.775,1.202,0.494,0.883,0.846,�k,1.9,��
2017/12/21,16:20,0.898,1.500,0.941,1.773,1.205,0.495,0.882,0.846,�k�k��,2.3,��
2017/12/21,16:30,0.901,1.503,0.941,1.775,1.201,0.493,0.881,0.846,�k�k��,2.3,��
2017/12/21,16:40,0.902,1.502,0.940,1.774,1.203,0.493,0.881,0.847,�k�k��,2.0,��
2017/12/21,16:50,0.900,1.504,0.938,1.774,1.201,0.494,0.881,0.845,�k�k��,1.5,��
2017/12/21,17:00,0.901,1.505,0.940,1.775,1.202,0.493,0.882,0.847,�k��,2.0,��
2017/12/21,17:10,0.899,1.503,0.939,1.775,1.201,0.493,0.881,0.847,�k��,2.3,��
2017/12/21,17:20,0.900,1.503,0.938,1.773,1.202,0.493,0.881,0.847,�k��,2.3,��
2017/12/21,17:30,0.900,1.502,0.940,1.777,1.201,0.491,0.881,0.845,�k��,1.7,��
2017/12/21,17:40,0.896,1.504,0.940,1.776,1.201,0.494,0.878,0.846,���k��,1.7,��
2017/12/21,17:50,0.898,1.502,0.938,1.772,1.201,0.493,0.880,0.845,���k��,2.3,��
2017/12/21,18:00,0.898,1.502,0.940,1.772,1.200,0.492,0.880,0.848,���k��,2.2,��
2017/12/21,18:10,0.899,1.504,0.938,1.772,1.201,0.491,0.880,0.846,���k��,1.7,��
2017/12/21,18:20,0.900,1.504,0.939,1.770,1.201,0.494,0.880,0.846,���k��,1.5,��
2017/12/21,18:30,0.899,1.504,0.938,1.770,1.202,0.493,0.878,0.846,��,1.2,��
2017/12/21,18:40,0.898,1.502,0.939,1.775,1.201,0.494,0.880,0.846,��,1.5,��
2017/12/21,18:50,0.900,1.503,0.938,1.770,1.202,0.494,0.878,0.846,���쐼,1.7,��
2017/12/21,19:00,0.900,1.503,0.937,1.772,1.200,0.494,0.880,0.846,�쐼,1.7,��
2017/12/21,19:10,0.899,1.503,0.938,1.773,1.203,0.492,0.880,0.846,�쐼,1.9,��
2017/12/21,19:20,0.897,1.502,0.938,1.770,1.202,0.491,0.880,0.846,��쐼,1.4,��
2017/12/21,19:30,0.900,1.501,0.937,1.771,1.201,0.492,0.877,0.845,��쐼,1.7,��
2017/12/21,19:40,0.900,1.500,0.937,1.774,1.201,0.492,0.880,0.846,�쐼,1.9,��
2017/12/21,19:50,0.900,1.500,0.940,1.771,1.200,0.493,0.878,0.845,�쐼,2.3,��
2017/12/21,20:00,0.899,1.501,0.938,1.772,1.200,0.492,0.879,0.846,�쐼,1.9,��
2017/12/21,20:10,0.900,1.502,0.937,1.772,1.198,0.492,0.877,0.844,�쐼,1.5,��
2017/12/21,20:20,0.899,1.503,0.939,1.773,1.203,0.492,0.880,0.846,�쐼,1.4,��
2017/12/21,20:30,0.900,1.502,0.939,1.771,1.201,0.493,0.880,0.846,�쐼,1.9,��
2017/12/21,20:40,0.898,1.500,0.938,1.772,1.201,0.492,0.877,0.847,���쐼,3.2,��
2017/12/21,20:50,0.899,1.503,0.939,1.771,1.200,0.493,0.879,0.844,��,5.2,��
2017/12/21,21:00,0.898,1.502,0.940,1.769,1.202,0.493,0.879,0.846,��,4.6,��
2017/12/21,21:10,0.900,1.501,0.937,1.771,1.202,0.493,0.879,0.844,��,4.5,��
2017/12/21,21:20,0.897,1.501,0.938,1.769,1.201,0.491,0.879,0.845,���k��,4.0,��
2017/12/21,21:30,0.901,1.501,0.938,1.772,1.199,0.493,0.877,0.847,���k��,2.6,��
2017/12/21,21:40,0.901,1.500,0.937,1.771,1.201,0.494,0.880,0.845,���k��,3.5,��
2017/12/21,21:50,0.901,1.503,0.936,1.772,1.202,0.493,0.879,0.844,���k��,4.1,��
2017/12/21,22:00,0.901,1.500,0.938,1.771,1.198,0.493,0.878,0.846,���k��,2.9,��
2017/12/21,22:10,0.898,1.503,0.937,1.770,1.200,0.493,0.878,0.846,�k��,3.7,��
2017/12/21,22:20,0.898,1.501,0.938,1.773,1.200,0.493,0.879,0.845,�k��,4.0,��
2017/12/21,22:30,0.898,1.504,0.936,1.771,1.201,0.493,0.876,0.844,�k��,3.8,��
2017/12/21,22:40,0.899,1.501,0.937,1.770,1.200,0.491,0.879,0.847,�k�k��,3.1,��
2017/12/21,22:50,0.899,1.501,0.939,1.771,1.201,0.494,0.878,0.846,�k��,4.0,��
2017/12/21,23:00,0.898,1.501,0.937,1.768,1.199,0.493,0.879,0.846,�k��,4.3,��
2017/12/21,23:10,0.899,1.501,0.937,1.771,1.201,0.493,0.878,0.845,�k��,3.5,��
2017/12/21,23:20,0.898,1.499,0.937,1.769,1.201,0.492,0.879,0.846,�k��,4.4,��
2017/12/21,23:30,0.900,1.500,0.937,1.770,1.199,0.493,0.879,0.845,���k��,3.3,��
2017/12/21,23:40,0.897,1.501,0.938,1.773,1.197,0.491,0.878,0.847,���k��,4.3,��
2017/12/21,23:50,0.898,1.501,0.937,1.772,1.199,0.493,0.878,0.844,���k��,5.5,��
